[[{"header":{"parameterUnit":"m.s-1","parameterCategory":1,"la1":30.2991,"la2":30.254,"lo1":-89.0895,"lo2":-89.0444,"dy":0.0017,"dx":0.0017,"nx":28,"ny":28,"refTime":"2023-03-19T21:00:00:Z","depth":0,"parameterNumber":2,"parameterNumberName":"U-component_of_WINDS"},"data":[0,0,0,0,0,0,0,0,0,0,0,0,0,0,0,0,0,0,0,0,0,0,0,0,0,0,0,0,0,0,0,0,0,0,0,0,0,0,0,0,0,0,0,0,0,0,0,0,0,0,0,0,0,0,0,0,0,0,-5.1605,-5.1606,0,-5.1671,-5.1672,-5.1672,-5.1556,-5.1552,-5.1548,-5.1544,-5.1609,-5.1615,-5.162,0,0,0,0,0,0,0,0,0,0,0,0,0,-5.1376,-5.1381,-5.1605,-5.1606,-5.1607,-5.1671,-5.1672,-5.1673,-5.1556,-5.1552,-5.1547,-5.1542,-5.1608,-5.1614,-5.162,0,0,0,0,0,0,0,0,0,0,0,0,0,-5.1462,-5.1382,-5.1605,-5.1557,-5.1553,-5.1671,-5.1672,-5.1673,-5.1557,-5.1552,-5.1546,-5.154,-5.1605,-5.1613,-5.1621,-5.1788,0,0,-5.1646,-5.1649,0,0,0,0,0,0,0,0,-5.1457,-5.147,-5.1563,-5.156,-5.1556,-5.1599,-5.1614,-5.1711,-5.1559,-5.1556,-5.1544,-5.1537,-5.1611,-5.1618,-5.1643,-5.1792,-5.1794,-5.1647,-5.1652,-5.1655,-5.1657,0,0,0,0,0,0,0,-5.1451,-5.1467,-5.1631,-5.1564,-5.156,-5.153,-5.1536,-5.1632,-5.1615,-5.1555,-5.1547,-5.1557,-5.1608,-5.1635,-5.1644,-5.1795,-5.1646,-5.1654,-5.1659,-5.1662,-5.2081,-5.2087,0,0,0,0,0,0,-5.1452,-5.1463,-5.1629,-5.1633,-5.1491,-5.1539,-5.1546,-5.1591,-5.1614,-5.1612,-5.1562,-5.1551,-5.1625,-5.1634,-5.1645,-5.1839,-5.1655,-5.1662,-5.1667,-5.2075,-5.2082,-5.2089,0,0,0,0,0,0,-5.1447,-5.1468,-5.1626,-5.1546,-5.1563,-5.155,-5.1602,-5.1596,-5.1623,-5.1618,-5.1614,-5.1593,-5.162,-5.1634,-5.1753,-5.184,-5.1666,-5.1673,-5.2067,-5.2077,-5.2086,-5.2231,0,0,0,0,0,0,-5.1441,-5.1467,-5.1531,-5.1548,-5.1568,-5.1734,-5.1607,-5.1601,-5.1638,-5.1624,-5.1647,-5.1645,-5.1617,-5.1742,-5.1761,-5.1848,-5.168,-5.2059,-5.2072,-5.2083,-5.2218,-5.2244,-5.2266,0,0,0,0,0,-5.1433,-5.1569,-5.1535,-5.1555,-5.1648,-5.1739,-5.1751,-5.1716,-5.1645,-5.1709,-5.1705,-5.1645,-5.1829,-5.1755,-5.1776,-5.1866,-5.2054,-5.2068,-5.2082,-5.2207,-5.2239,-5.2265,0,0,0,0,0,0,-5.1562,-5.157,-5.1532,-5.1678,-5.1709,-5.1719,-5.1798,-5.1751,-5.1802,-5.1787,-5.1741,-5.1747,-5.1875,-5.1883,-5.1801,-5.2028,-5.1929,-5.1948,-5.2017,-5.2047,-5.2071,-5.2064,-5.1686,0,0,0,0,0,-5.1607,-5.1682,-5.1685,-5.1813,-5.1831,-5.1813,-5.1851,-5.1821,-5.1851,-5.1863,-5.1868,-5.1899,-5.1963,-5.2006,-5.2065,-5.222,-5.2221,-5.2293,-5.2317,-5.2337,-5.2352,-5.2431,-5.2461,-5.2136,-5.2136,-5.2135,0,0,-5.1701,-5.1715,-5.1765,-5.1839,-5.1859,-5.1935,-5.1824,-5.191,-5.1965,-5.1876,-5.1987,-5.1993,-5.2024,-5.2161,-5.2221,-5.2171,-5.2443,-5.2355,-5.237,-5.2375,-5.2449,-5.2479,-5.2507,-5.2145,-5.2144,-5.2142,0,0,-5.1911,-5.1931,-5.2038,-5.2061,-5.2093,-5.208,-5.2106,-5.2124,-5.2124,-5.2236,-5.217,-5.2236,-5.2348,-5.2372,-5.2399,-5.2618,-5.2562,-5.2639,-5.2762,-5.284,-5.2865,-5.2888,-5.2962,-5.2989,-5.2655,-5.2656,-5.2656,0,-5.2023,-5.2136,-5.2099,-5.2188,-5.2222,-5.2146,-5.2253,-5.2277,-5.2327,-5.2351,-5.2296,-5.2434,-5.245,-5.2589,-5.2642,-5.2669,-5.2694,-5.2633,-5.2865,-5.2887,-5.2908,-5.2977,-5.3006,-5.2664,-5.2663,-5.2662,-5.2662,0,-5.227,-5.2349,-5.2432,-5.2482,-5.2525,-5.2624,-5.26,-5.2648,-5.2616,-5.2608,-5.2722,-5.2739,-5.2798,-5.2831,-5.28,-5.2965,-5.2933,-5.2873,-5.2771,-5.2948,-5.3012,-5.3039,-5.2677,-5.2674,-5.2671,-5.2669,0,0,-5.2559,-5.2588,-5.2618,-5.2638,-5.2669,-5.2729,-5.2824,-5.2883,-5.2923,-5.2962,-5.3037,-5.3135,-5.3078,-5.3109,-5.308,-5.3149,-5.3317,-5.308,-5.3079,-5.3119,-5.3496,-5.3537,-5.3569,-5.3282,-5.3288,-5.3292,-5.3491,0,-5.2763,-5.2925,-5.2894,-5.3052,-5.3123,-5.3053,-5.3134,-5.3162,-5.3158,-5.3217,-5.3212,-5.328,-5.3203,-5.322,-5.3286,-5.3283,-5.3391,-5.3269,-5.3349,-5.3352,-5.3338,-5.3604,-5.3648,-5.3836,-5.3517,-5.3521,-5.3525,0,-5.3022,-5.3069,-5.3234,-5.3251,-5.328,-5.3354,-5.3404,-5.3463,-5.3491,-5.3484,-5.3519,-5.3477,-5.3569,-5.3471,-5.3595,-5.3513,-5.3544,-5.3548,-5.3554,-5.3556,-5.3445,-5.3608,-5.3896,-5.3922,-5.3565,-5.3562,-5.3559,0,-5.321,-5.3315,-5.3426,-5.3447,-5.3471,-5.3524,-5.3537,-5.356,-5.3597,-5.3642,-5.3665,-5.372,-5.3749,-5.3793,-5.3766,-5.3698,-5.3894,-5.3795,-5.3887,-5.3888,-5.3928,-5.3925,-5.4219,-5.3957,-5.3957,-5.3956,-5.3956,0,-5.3438,-5.354,-5.351,-5.3578,-5.369,-5.3655,-5.3766,-5.3771,-5.3792,-5.3858,-5.3803,-5.3866,-5.383,-5.3891,-5.3872,-5.3975,-5.399,-5.3984,-5.3977,-5.3987,-5.3987,-5.4003,-5.3987,-5.3964,-5.3962,-5.3961,-5.396,0,-5.3665,-5.365,-5.3765,-5.378,-5.3786,-5.3867,-5.3878,-5.3941,-5.3934,-5.4018,-5.4036,-5.4024,-5.4092,-5.4072,-5.4146,-5.4133,-5.4263,-5.4242,-5.4253,-5.4245,-5.4338,-5.4328,-5.4649,-5.4688,-5.4406,-5.4409,-5.4411,0,-5.3809,-5.3886,-5.3908,-5.3949,-5.3965,-5.4032,-5.4069,-5.4038,-5.4079,-5.4117,-5.4175,-5.4238,-5.4286,-5.4398,-5.4395,-5.4451,-5.4427,-5.4536,-5.4435,-5.4441,-5.4423,-5.4417,-5.4422,-5.4555,-5.4558,-5.4561,-5.4563,0,-5.4065,-5.4053,-5.4109,-5.4163,-5.4209,-5.425,-5.4285,-5.4321,-5.4292,-5.4341,-5.441,-5.4447,-5.4523,-5.4585,-5.4635,-5.4647,-5.4599,-5.4596,-5.4619,-5.4627,-5.4628,-5.4624,-5.4302,-5.4587,-5.4585,-5.4583,-5.4582,-5.4581,-5.4251,-5.4315,-5.434,-5.4404,-5.4427,-5.4462,-5.452,-5.4521,-5.4578,-5.4636,-5.4615,-5.4693,-5.4719,-5.4782,-5.48,-5.486,-5.4818,-5.4853,-5.4861,-5.4869,-5.4879,-5.4623,-5.487,-5.4869,-5.4869,-5.4868,-5.4868,0,-5.4499,-5.4512,-5.4572,-5.4623,-5.4673,-5.4626,-5.4663,-5.4707,-5.4776,-5.4805,-5.4854,-5.4932,-5.4993,-5.4996,-5.5051,-5.5099,-5.5078,-5.5114,-5.5107,-5.511,-5.4915,-5.4887,-5.5129,-5.5129,-5.5129,-5.5129,-5.5129,-5.5129,-5.4634,-5.4738,-5.473,-5.4845,-5.4857,-5.4933,-5.4957,-5.4988,-5.501,-5.51,-5.515,-5.5152,-5.517,-5.5227,-5.5279,-5.5278,-5.5299,-5.5343,-5.5333,-5.515,-5.5124,-5.5099,-5.5072,-5.5349,-5.5349,-5.5522,-5.5524,-5.5525]},{"header":{"parameterUnit":"m.s-1","parameterCategory":1,"la1":30.2991,"la2":30.254,"lo1":-89.0895,"lo2":-89.0444,"dy":0.0017,"dx":0.0017,"nx":28,"ny":28,"refTime":"2023-03-19T21:00:00:Z","depth":0,"parameterNumber":3,"parameterNumberName":"V-component_of_WINDS"},"data":[0,0,0,0,0,0,0,0,0,0,0,0,0,0,0,0,0,0,0,0,0,0,0,0,0,0,0,0,0,0,0,0,0,0,0,0,0,0,0,0,0,0,0,0,0,0,0,0,0,0,0,0,0,0,0,0,0,0,0.6562,0.6562,0,0.6502,0.6501,0.65,0.6368,0.6365,0.6362,0.636,0.6302,0.6303,0.6303,0,0,0,0,0,0,0,0,0,0,0,0,0,0.6569,0.657,0.6563,0.6562,0.6561,0.6502,0.6501,0.65,0.6368,0.6365,0.6362,0.6358,0.6301,0.6302,0.6304,0,0,0,0,0,0,0,0,0,0,0,0,0,0.6543,0.657,0.6563,0.6488,0.6481,0.6502,0.6501,0.65,0.6369,0.6365,0.6361,0.6357,0.6301,0.6302,0.6304,0.6394,0,0,0.6308,0.6309,0,0,0,0,0,0,0,0,0.6545,0.6543,0.65,0.6493,0.6485,0.6438,0.6482,0.6465,0.637,0.6411,0.636,0.6355,0.6351,0.6348,0.6345,0.6391,0.6389,0.6308,0.6309,0.631,0.631,0,0,0,0,0,0,0,0.6547,0.6545,0.6538,0.6499,0.649,0.6459,0.6451,0.6478,0.6405,0.6407,0.6398,0.6392,0.6346,0.6344,0.6343,0.6388,0.6308,0.631,0.6311,0.6311,0.6507,0.6511,0,0,0,0,0,0,0.6559,0.6547,0.654,0.6537,0.6505,0.6462,0.6453,0.6457,0.6404,0.6392,0.6396,0.6386,0.6344,0.6341,0.634,0.6443,0.631,0.6311,0.6312,0.6503,0.6508,0.6512,0,0,0,0,0,0,0.6559,0.6559,0.6543,0.6539,0.6535,0.6466,0.6472,0.6458,0.6456,0.6395,0.6382,0.6407,0.634,0.6338,0.6382,0.6439,0.6312,0.6313,0.6497,0.6504,0.651,0.665,0,0,0,0,0,0,0.656,0.656,0.6593,0.6541,0.6536,0.6584,0.6476,0.646,0.6459,0.6446,0.6402,0.6391,0.6337,0.638,0.6383,0.6439,0.6314,0.6492,0.65,0.6508,0.664,0.6661,0.6678,0,0,0,0,0,0.6561,0.6635,0.6595,0.6595,0.6574,0.6588,0.6585,0.652,0.6464,0.6497,0.6458,0.6393,0.6433,0.6386,0.6388,0.6445,0.6488,0.6498,0.6507,0.6631,0.6657,0.6678,0,0,0,0,0,0,0.6697,0.6627,0.6582,0.6641,0.6622,0.6565,0.6605,0.6548,0.6545,0.6533,0.6454,0.6445,0.65,0.6477,0.6426,0.6531,0.645,0.6461,0.6544,0.6567,0.6586,0.659,0.6316,0,0,0,0,0,0.6734,0.6749,0.6688,0.6746,0.6738,0.6674,0.6677,0.6629,0.6606,0.6597,0.656,0.6542,0.655,0.6557,0.6561,0.6636,0.6626,0.6677,0.6696,0.6712,0.6722,0.6761,0.6784,0.6544,0.6544,0.6544,0,0,0.681,0.6774,0.6788,0.6773,0.6751,0.6771,0.6668,0.6692,0.6706,0.6601,0.6639,0.6613,0.6586,0.6646,0.6671,0.6629,0.6786,0.6724,0.6738,0.6739,0.6774,0.6797,0.6817,0.6551,0.655,0.6549,0,0,0.6959,0.6933,0.6979,0.696,0.6929,0.6885,0.6897,0.685,0.6827,0.6865,0.6787,0.6803,0.6819,0.6803,0.6798,0.6943,0.6884,0.6947,0.7047,0.7086,0.7105,0.7121,0.7174,0.7193,0.6957,0.6958,0.6958,0,0.7058,0.7082,0.701,0.7039,0.7036,0.6941,0.6988,0.6973,0.6947,0.6947,0.69,0.6918,0.6894,0.695,0.6985,0.6984,0.6995,0.6951,0.7107,0.7123,0.7137,0.7187,0.7207,0.6966,0.6965,0.6964,0.6963,0,0.7206,0.7224,0.7266,0.7241,0.7241,0.728,0.7215,0.7225,0.7178,0.714,0.7181,0.7148,0.7145,0.7154,0.7108,0.7204,0.7179,0.7121,0.7039,0.7169,0.7214,0.7233,0.6977,0.6974,0.6972,0.697,0,0,0.7438,0.7373,0.7389,0.7377,0.7337,0.7351,0.7386,0.7381,0.7392,0.7377,0.7405,0.7422,0.7368,0.7362,0.7314,0.7348,0.7467,0.7286,0.7284,0.7321,0.7572,0.7616,0.7639,0.7427,0.743,0.7433,0.7574,0,0.7577,0.7632,0.7569,0.7637,0.7654,0.7565,0.7596,0.7576,0.7542,0.7553,0.7516,0.7529,0.7457,0.7453,0.7483,0.7446,0.7516,0.7435,0.7454,0.7456,0.7463,0.7662,0.7708,0.7843,0.7591,0.7594,0.7596,0,0.7747,0.7739,0.7809,0.7765,0.777,0.7799,0.779,0.7801,0.7777,0.775,0.7745,0.7686,0.772,0.764,0.7685,0.7632,0.7636,0.7619,0.7623,0.7622,0.7534,0.7667,0.7884,0.7905,0.7623,0.7621,0.7619,0,0.791,0.7917,0.796,0.7953,0.7902,0.7925,0.7905,0.7877,0.7879,0.7872,0.7873,0.7871,0.787,0.7871,0.7815,0.7761,0.7868,0.7783,0.7848,0.785,0.7874,0.7874,0.8095,0.7877,0.7877,0.7877,0.7876,0,0.8072,0.8119,0.8032,0.8059,0.8109,0.8038,0.809,0.8062,0.8038,0.8058,0.7982,0.8004,0.7928,0.7942,0.7898,0.7943,0.7944,0.7924,0.7912,0.7931,0.7934,0.7933,0.7922,0.7882,0.7881,0.788,0.7879,0,0.8262,0.8206,0.8247,0.8197,0.8185,0.8225,0.8182,0.8205,0.8167,0.8195,0.8197,0.8138,0.8151,0.8094,0.8098,0.8068,0.8136,0.8109,0.8144,0.8136,0.8204,0.8199,0.8434,0.8461,0.8226,0.8228,0.823,0,0.837,0.8403,0.8356,0.8364,0.8348,0.8362,0.8363,0.8295,0.83,0.8276,0.8303,0.8309,0.8311,0.8336,0.8294,0.8297,0.8269,0.8351,0.8268,0.8287,0.827,0.8269,0.8273,0.8368,0.8371,0.8373,0.8375,0,0.8566,0.8537,0.8541,0.8537,0.854,0.8533,0.8521,0.8533,0.8459,0.8469,0.8481,0.8482,0.8485,0.8493,0.8487,0.8469,0.8411,0.8401,0.8417,0.8436,0.8456,0.8447,0.8191,0.8396,0.8394,0.8393,0.8391,0.8391,0.8718,0.8744,0.8716,0.8723,0.8707,0.8698,0.8718,0.8682,0.869,0.8687,0.8647,0.8667,0.8644,0.863,0.8617,0.8633,0.8594,0.8617,0.8622,0.8629,0.8641,0.8454,0.8632,0.8631,0.863,0.863,0.8629,0,0.8911,0.8888,0.8896,0.8882,0.8889,0.8832,0.8817,0.8827,0.8845,0.8827,0.883,0.8845,0.8852,0.8812,0.8814,0.8835,0.8809,0.8838,0.8836,0.8833,0.8675,0.8661,0.8859,0.8859,0.8859,0.8859,0.8859,0.8859,0.9012,0.9054,0.9022,0.9056,0.9033,0.905,0.9047,0.9039,0.9025,0.9044,0.9049,0.9022,0.8997,0.8997,0.9002,0.899,0.8995,0.9034,0.9013,0.8866,0.8844,0.8823,0.881,0.9036,0.9036,0.917,0.9171,0.9172]}]]